Time,TemperatureF,DewpointF,PressureIn,WindDirection,WindDirectionDegrees,WindSpeedMPH,WindSpeedGustMPH,Humidity,HourlyPrecipIn,Conditions,Clouds,dailyrainin,SolarRadiationWatts/m^2,SoftwareType,DateUTC
2013-02-06 00:07:00,44.3,44.3,30.19,ESE,103,1.0,3.0,100,0.00,,,0.00,0,Wunderground v.1.15,2013-02-06 08:07:00,
2013-02-06 00:13:00,44.3,44.3,30.19,ESE,112,0.0,1.0,100,0.00,,,0.00,0,Wunderground v.1.15,2013-02-06 08:13:00,
2013-02-06 00:19:00,44.1,44.1,30.19,ESE,112,0.0,0.0,100,0.00,,,0.00,0,Wunderground v.1.15,2013-02-06 08:19:00,
2013-02-06 00:25:00,43.9,43.9,30.20,ESE,112,1.0,1.0,100,0.00,,,0.00,0,Wunderground v.1.15,2013-02-06 08:25:00,
2013-02-06 00:31:00,44.0,44.0,30.20,ESE,112,0.0,0.0,100,0.00,,,0.00,0,Wunderground v.1.15,2013-02-06 08:31:00,
2013-02-06 00:37:00,44.1,44.1,30.20,ESE,112,0.0,1.0,100,0.00,,,0.00,0,Wunderground v.1.15,2013-02-06 08:37:00,
2013-02-06 00:43:00,44.0,44.0,30.20,ESE,112,0.0,1.0,100,0.00,,,0.00,0,Wunderground v.1.15,2013-02-06 08:43:00,
2013-02-06 00:49:00,44.0,44.0,30.20,ESE,112,0.0,0.0,100,0.00,,,0.00,0,Wunderground v.1.15,2013-02-06 08:49:00,
2013-02-06 00:55:00,43.7,43.7,30.20,ESE,112,0.0,0.0,100,0.00,,,0.00,0,Wunderground v.1.15,2013-02-06 08:55:00,
2013-02-06 01:01:00,43.6,43.6,30.20,ESE,112,0.0,1.0,100,0.00,,,0.00,0,Wunderground v.1.15,2013-02-06 09:01:00,
2013-02-06 01:07:00,43.5,43.5,30.20,ESE,112,0.0,1.0,100,0.00,,,0.00,0,Wunderground v.1.15,2013-02-06 09:07:00,
2013-02-06 01:12:00,43.7,43.7,30.20,ESE,112,0.0,1.0,100,0.00,,,0.00,0,Wunderground v.1.15,2013-02-06 09:12:00,
2013-02-06 01:18:00,43.9,43.9,30.20,ESE,112,0.0,1.0,100,0.00,,,0.00,0,Wunderground v.1.15,2013-02-06 09:18:00,
2013-02-06 01:23:00,44.0,44.0,30.20,SE,130,1.0,2.0,100,0.00,,,0.00,0,Wunderground v.1.15,2013-02-06 09:23:00,
2013-02-06 01:29:00,44.0,44.0,30.20,SE,124,1.0,1.0,100,0.00,,,0.00,0,Wunderground v.1.15,2013-02-06 09:29:00,
2013-02-06 01:35:00,43.9,43.9,30.20,SE,127,1.0,2.0,100,0.00,,,0.00,0,Wunderground v.1.15,2013-02-06 09:35:00,
2013-02-06 01:41:00,43.8,43.8,30.20,SE,129,2.0,2.0,100,0.00,,,0.00,0,Wunderground v.1.15,2013-02-06 09:41:00,
2013-02-06 01:47:00,43.8,43.8,30.20,ESE,108,2.0,3.0,100,0.00,,,0.00,0,Wunderground v.1.15,2013-02-06 09:47:00,
2013-02-06 01:52:00,43.7,43.7,30.20,ESE,119,1.0,1.0,100,0.00,,,0.00,0,Wunderground v.1.15,2013-02-06 09:52:00,
2013-02-06 01:58:00,43.7,43.7,30.20,ESE,119,1.0,2.0,100,0.00,,,0.00,0,Wunderground v.1.15,2013-02-06 09:58:00,
2013-02-06 02:06:00,43.7,43.7,30.19,ESE,119,0.0,2.0,100,0.00,,,0.00,0,Wunderground v.1.15,2013-02-06 10:06:00,
2013-02-06 02:12:00,43.6,43.6,30.19,ESE,122,0.0,1.0,100,0.00,,,0.00,0,Wunderground v.1.15,2013-02-06 10:12:00,
2013-02-06 02:18:00,43.3,43.3,30.19,SE,127,2.0,3.0,100,0.00,,,0.00,0,Wunderground v.1.15,2013-02-06 10:18:00,
2013-02-06 02:23:00,43.0,43.0,30.18,SE,128,2.0,4.0,100,0.00,,,0.00,0,Wunderground v.1.15,2013-02-06 10:23:00,
2013-02-06 02:29:00,42.7,42.7,30.18,SE,130,1.0,1.0,100,0.00,,,0.00,0,Wunderground v.1.15,2013-02-06 10:29:00,
2013-02-06 02:35:00,42.6,42.6,30.18,SE,130,2.0,2.0,100,0.00,,,0.00,0,Wunderground v.1.15,2013-02-06 10:35:00,
2013-02-06 02:41:00,42.5,42.5,30.17,ESE,118,0.0,1.0,100,0.00,,,0.00,0,Wunderground v.1.15,2013-02-06 10:41:00,
2013-02-06 02:46:00,42.5,42.5,30.17,ESE,118,0.0,1.0,100,0.00,,,0.00,0,Wunderground v.1.15,2013-02-06 10:46:00,
2013-02-06 02:51:00,42.3,42.3,30.17,ESE,118,1.0,1.0,100,0.00,,,0.00,0,Wunderground v.1.15,2013-02-06 10:51:00,
2013-02-06 02:57:00,42.2,42.2,30.17,ESE,119,0.0,2.0,100,0.00,,,0.00,0,Wunderground v.1.15,2013-02-06 10:57:00,
2013-02-06 03:03:00,42.1,42.1,30.17,SE,132,1.0,4.0,100,0.00,,,0.00,0,Wunderground v.1.15,2013-02-06 11:03:00,
2013-02-06 03:08:00,42.0,42.0,30.17,SE,131,0.0,4.0,100,0.00,,,0.00,0,Wunderground v.1.15,2013-02-06 11:08:00,
2013-02-06 03:14:00,41.9,41.9,30.17,SE,132,0.0,0.0,100,0.00,,,0.00,0,Wunderground v.1.15,2013-02-06 11:14:00,
2013-02-06 03:20:00,41.7,41.7,30.17,SE,131,0.0,0.0,100,0.00,,,0.00,0,Wunderground v.1.15,2013-02-06 11:20:00,
2013-02-06 03:26:00,41.7,41.7,30.17,SE,131,0.0,0.0,100,0.00,,,0.00,0,Wunderground v.1.15,2013-02-06 11:26:00,
2013-02-06 03:31:00,41.7,41.7,30.17,SE,131,0.0,0.0,100,0.00,,,0.00,0,Wunderground v.1.15,2013-02-06 11:31:00,
2013-02-06 03:37:00,41.7,41.7,30.18,SE,131,0.0,0.0,100,0.00,,,0.00,0,Wunderground v.1.15,2013-02-06 11:37:00,
2013-02-06 03:42:00,41.7,41.7,30.18,SE,131,0.0,0.0,100,0.00,,,0.00,0,Wunderground v.1.15,2013-02-06 11:42:00,
2013-02-06 03:47:00,41.7,41.7,30.18,East,91,0.0,0.0,100,0.00,,,0.00,0,Wunderground v.1.15,2013-02-06 11:47:00,
2013-02-06 03:52:00,41.7,41.7,30.18,East,91,0.0,0.0,100,0.00,,,0.00,0,Wunderground v.1.15,2013-02-06 11:52:00,
2013-02-06 03:57:00,41.5,41.5,30.18,East,91,0.0,0.0,100,0.00,,,0.00,0,Wunderground v.1.15,2013-02-06 11:57:00,
2013-02-06 04:02:00,41.2,41.2,30.18,East,83,0.0,3.0,100,0.00,,,0.00,0,Wunderground v.1.15,2013-02-06 12:02:00,
2013-02-06 04:08:00,41.0,41.0,30.19,ENE,76,0.0,3.0,100,0.00,,,0.00,0,Wunderground v.1.15,2013-02-06 12:08:00,
2013-02-06 04:13:00,40.8,40.8,30.19,ENE,60,0.0,0.0,100,0.00,,,0.00,0,Wunderground v.1.15,2013-02-06 12:13:00,
2013-02-06 04:19:00,40.9,40.9,30.18,ENE,57,0.0,0.0,100,0.00,,,0.00,0,Wunderground v.1.15,2013-02-06 12:19:00,
2013-02-06 04:25:00,40.9,40.9,30.18,NNE,26,0.0,0.0,100,0.00,,,0.00,0,Wunderground v.1.15,2013-02-06 12:25:00,
2013-02-06 04:30:00,40.8,40.8,30.18,NNE,30,0.0,0.0,100,0.00,,,0.00,0,Wunderground v.1.15,2013-02-06 12:30:00,
2013-02-06 04:35:00,40.8,40.8,30.18,NE,37,0.0,0.0,100,0.00,,,0.00,0,Wunderground v.1.15,2013-02-06 12:35:00,
2013-02-06 04:41:00,40.4,40.4,30.18,SE,131,0.0,2.0,100,0.00,,,0.00,0,Wunderground v.1.15,2013-02-06 12:41:00,
2013-02-06 04:47:00,40.1,40.1,30.19,SE,131,0.0,2.0,100,0.00,,,0.00,0,Wunderground v.1.15,2013-02-06 12:47:00,
2013-02-06 04:53:00,40.1,40.1,30.19,SE,130,1.0,1.0,100,0.00,,,0.00,0,Wunderground v.1.15,2013-02-06 12:53:00,
2013-02-06 04:59:00,39.9,39.9,30.19,SE,130,0.0,0.0,100,0.00,,,0.00,0,Wunderground v.1.15,2013-02-06 12:59:00,
2013-02-06 05:07:00,39.9,39.9,30.19,SE,130,0.0,1.0,100,0.00,,,0.00,0,Wunderground v.1.15,2013-02-06 13:07:00,
2013-02-06 05:12:00,40.1,40.1,30.19,SE,130,0.0,0.0,100,0.00,,,0.00,0,Wunderground v.1.15,2013-02-06 13:12:00,
2013-02-06 05:18:00,39.6,39.6,30.19,SE,130,0.0,0.0,100,0.00,,,0.00,0,Wunderground v.1.15,2013-02-06 13:18:00,
2013-02-06 05:24:00,39.6,39.6,30.19,SE,130,0.0,0.0,100,0.00,,,0.00,0,Wunderground v.1.15,2013-02-06 13:24:00,
2013-02-06 05:30:00,39.8,39.8,30.19,SE,130,0.0,0.0,100,0.00,,,0.00,0,Wunderground v.1.15,2013-02-06 13:30:00,
2013-02-06 05:36:00,40.0,40.0,30.19,SE,130,0.0,0.0,100,0.00,,,0.00,0,Wunderground v.1.15,2013-02-06 13:36:00,
2013-02-06 05:41:00,40.1,40.1,30.19,SE,130,0.0,0.0,100,0.00,,,0.00,0,Wunderground v.1.15,2013-02-06 13:41:00,
2013-02-06 05:46:00,40.1,40.1,30.19,SE,130,0.0,0.0,100,0.00,,,0.00,0,Wunderground v.1.15,2013-02-06 13:46:00,
2013-02-06 05:51:00,39.6,39.3,30.20,SE,130,0.0,0.0,99,0.00,,,0.00,0,Wunderground v.1.15,2013-02-06 13:51:00,
2013-02-06 05:57:00,38.8,38.5,30.20,SE,130,0.0,0.0,99,0.00,,,0.00,0,Wunderground v.1.15,2013-02-06 13:57:00,
2013-02-06 06:02:00,38.6,38.6,30.20,SE,130,0.0,3.0,100,0.00,,,0.00,0,Wunderground v.1.15,2013-02-06 14:02:00,
2013-02-06 06:07:00,38.6,38.6,30.20,SE,130,0.0,3.0,100,0.00,,,0.00,0,Wunderground v.1.15,2013-02-06 14:07:00,
2013-02-06 06:13:00,38.5,38.5,30.20,SE,130,0.0,1.0,100,0.00,,,0.00,0,Wunderground v.1.15,2013-02-06 14:13:00,
2013-02-06 06:19:00,38.4,38.4,30.20,SE,130,0.0,1.0,100,0.00,,,0.00,0,Wunderground v.1.15,2013-02-06 14:19:00,
2013-02-06 06:24:00,38.5,38.5,30.21,SE,130,0.0,0.0,100,0.00,,,0.00,0,Wunderground v.1.15,2013-02-06 14:24:00,
2013-02-06 06:30:00,38.7,38.7,30.21,SE,130,0.0,0.0,100,0.00,,,0.00,0,Wunderground v.1.15,2013-02-06 14:30:00,
2013-02-06 06:36:00,38.8,38.8,30.21,SE,130,0.0,0.0,100,0.00,,,0.00,0,Wunderground v.1.15,2013-02-06 14:36:00,
2013-02-06 06:41:00,38.8,38.8,30.21,SE,130,0.0,0.0,100,0.00,,,0.00,0,Wunderground v.1.15,2013-02-06 14:41:00,
2013-02-06 06:46:00,38.9,38.9,30.21,SE,130,0.0,0.0,100,0.00,,,0.00,0,Wunderground v.1.15,2013-02-06 14:46:00,
2013-02-06 06:52:00,38.8,38.8,30.22,SE,130,0.0,0.0,100,0.00,,,0.00,0,Wunderground v.1.15,2013-02-06 14:52:00,
2013-02-06 06:58:00,38.5,38.5,30.22,SE,130,0.0,0.0,100,0.00,,,0.00,0,Wunderground v.1.15,2013-02-06 14:58:00,
2013-02-06 07:03:00,38.3,38.3,30.22,SE,130,0.0,1.0,100,0.00,,,0.00,0,Wunderground v.1.15,2013-02-06 15:03:00,
2013-02-06 07:09:00,38.3,38.3,30.22,SE,130,0.0,1.0,100,0.00,,,0.00,0,Wunderground v.1.15,2013-02-06 15:09:00,
2013-02-06 07:14:00,38.3,38.3,30.22,SE,129,0.0,0.0,100,0.00,,,0.00,0,Wunderground v.1.15,2013-02-06 15:14:00,
2013-02-06 07:20:00,38.5,38.5,30.21,ESE,122,0.0,0.0,100,0.00,,,0.00,0,Wunderground v.1.15,2013-02-06 15:20:00,
2013-02-06 07:25:00,38.6,38.6,30.21,ESE,121,1.0,1.0,100,0.00,,,0.00,0,Wunderground v.1.15,2013-02-06 15:25:00,
2013-02-06 07:31:00,38.6,38.3,30.22,ESE,111,3.0,3.0,99,0.00,,,0.00,0,Wunderground v.1.15,2013-02-06 15:31:00,
2013-02-06 07:36:00,38.6,37.8,30.22,ESE,108,3.0,3.0,97,0.00,,,0.00,0,Wunderground v.1.15,2013-02-06 15:36:00,
2013-02-06 07:42:00,38.7,37.9,30.22,ESE,119,0.0,1.0,97,0.00,,,0.00,0,Wunderground v.1.15,2013-02-06 15:42:00,
2013-02-06 07:47:00,38.7,37.9,30.22,ESE,120,0.0,3.0,97,0.00,,,0.00,0,Wunderground v.1.15,2013-02-06 15:47:00,
2013-02-06 07:53:00,38.6,37.8,30.22,ESE,109,0.0,2.0,97,0.00,,,0.00,0,Wunderground v.1.15,2013-02-06 15:53:00,
2013-02-06 07:58:00,38.6,37.8,30.23,ESE,114,0.0,2.0,97,0.00,,,0.00,0,Wunderground v.1.15,2013-02-06 15:58:00,
2013-02-06 08:04:00,38.7,37.9,30.23,East,93,0.0,0.0,97,0.00,,,0.00,0,Wunderground v.1.15,2013-02-06 16:04:00,
2013-02-06 08:10:00,39.1,38.8,30.22,East,93,0.0,0.0,99,0.00,,,0.00,0,Wunderground v.1.15,2013-02-06 16:10:00,
2013-02-06 08:16:00,39.8,39.3,30.22,East,93,0.0,0.0,98,0.00,,,0.00,0,Wunderground v.1.15,2013-02-06 16:16:00,
2013-02-06 08:22:00,40.4,39.9,30.23,East,93,0.0,0.0,98,0.00,,,0.00,0,Wunderground v.1.15,2013-02-06 16:22:00,
2013-02-06 08:28:00,41.2,40.7,30.22,East,94,0.0,0.0,98,0.00,,,0.00,0,Wunderground v.1.15,2013-02-06 16:28:00,
2013-02-06 08:34:00,41.9,40.6,30.22,East,94,0.0,0.0,95,0.00,,,0.00,0,Wunderground v.1.15,2013-02-06 16:34:00,
2013-02-06 08:39:00,42.3,41.0,30.23,East,97,0.0,0.0,95,0.00,,,0.00,0,Wunderground v.1.15,2013-02-06 16:39:00,
2013-02-06 08:44:00,42.8,40.9,30.23,East,87,1.0,1.0,93,0.00,,,0.00,0,Wunderground v.1.15,2013-02-06 16:44:00,
2013-02-06 08:50:00,43.7,41.8,30.23,ESE,114,0.0,0.0,93,0.00,,,0.00,0,Wunderground v.1.15,2013-02-06 16:50:00,
2013-02-06 08:55:00,44.4,42.2,30.23,SE,146,0.0,1.0,92,0.00,,,0.00,0,Wunderground v.1.15,2013-02-06 16:55:00,
2013-02-06 09:01:00,45.2,42.4,30.23,SE,125,1.0,1.0,90,0.00,,,0.00,0,Wunderground v.1.15,2013-02-06 17:01:00,
2013-02-06 09:08:00,45.8,43.0,30.23,SW,220,0.0,4.0,90,0.00,,,0.00,0,Wunderground v.1.15,2013-02-06 17:08:00,
2013-02-06 09:13:00,46.4,43.6,30.22,South,187,0.0,0.0,90,0.00,,,0.00,0,Wunderground v.1.15,2013-02-06 17:13:00,
2013-02-06 09:18:00,46.9,44.4,30.23,SSW,204,0.0,0.0,91,0.00,,,0.00,0,Wunderground v.1.15,2013-02-06 17:18:00,
2013-02-06 09:23:00,47.3,44.8,30.23,WSW,258,0.0,0.0,91,0.00,,,0.00,0,Wunderground v.1.15,2013-02-06 17:23:00,
2013-02-06 09:29:00,47.6,45.1,30.23,SW,214,0.0,3.0,91,0.00,,,0.00,0,Wunderground v.1.15,2013-02-06 17:29:00,
2013-02-06 09:34:00,47.8,45.0,30.23,WSW,240,2.0,3.0,90,0.00,,,0.00,0,Wunderground v.1.15,2013-02-06 17:34:00,
2013-02-06 09:39:00,47.9,44.8,30.23,NW,304,3.0,3.0,89,0.00,,,0.00,0,Wunderground v.1.15,2013-02-06 17:39:00,
2013-02-06 09:45:00,47.8,44.7,30.23,West,267,3.0,3.0,89,0.00,,,0.00,0,Wunderground v.1.15,2013-02-06 17:45:00,
2013-02-06 09:50:00,48.1,44.7,30.23,West,281,0.0,0.0,88,0.00,,,0.00,0,Wunderground v.1.15,2013-02-06 17:50:00,
2013-02-06 09:55:00,48.4,45.0,30.23,WNW,285,1.0,2.0,88,0.00,,,0.00,0,Wunderground v.1.15,2013-02-06 17:55:00,
2013-02-06 10:00:00,48.5,45.4,30.23,SSW,209,3.0,3.0,89,0.00,,,0.00,0,Wunderground v.1.15,2013-02-06 18:00:00,
2013-02-06 10:08:00,49.1,45.7,30.23,WNW,297,0.0,4.0,88,0.00,,,0.00,0,Wunderground v.1.15,2013-02-06 18:08:00,
2013-02-06 10:13:00,49.2,45.8,30.23,West,279,3.0,3.0,88,0.00,,,0.00,0,Wunderground v.1.15,2013-02-06 18:13:00,
2013-02-06 10:19:00,49.5,46.4,30.23,West,275,3.0,3.0,89,0.00,,,0.00,0,Wunderground v.1.15,2013-02-06 18:19:00,
2013-02-06 10:25:00,49.6,46.5,30.23,West,269,2.0,3.0,89,0.00,,,0.00,0,Wunderground v.1.15,2013-02-06 18:25:00,
2013-02-06 10:31:00,49.8,45.8,30.24,NW,304,0.0,3.0,86,0.00,,,0.00,0,Wunderground v.1.15,2013-02-06 18:31:00,
2013-02-06 10:37:00,49.9,46.2,30.23,WNW,300,5.0,5.0,87,0.00,,,0.00,0,Wunderground v.1.15,2013-02-06 18:37:00,
2013-02-06 10:43:00,49.9,46.2,30.23,West,267,2.0,3.0,87,0.00,,,0.00,0,Wunderground v.1.15,2013-02-06 18:43:00,
2013-02-06 10:48:00,50.3,45.3,30.23,NW,307,3.0,4.0,83,0.00,,,0.00,0,Wunderground v.1.15,2013-02-06 18:48:00,
2013-02-06 10:53:00,50.4,45.7,30.23,WNW,301,4.0,4.0,84,0.00,,,0.00,0,Wunderground v.1.15,2013-02-06 18:53:00,
2013-02-06 10:59:00,50.7,45.7,30.23,SW,236,4.0,4.0,83,0.00,,,0.00,0,Wunderground v.1.15,2013-02-06 18:59:00,
2013-02-06 11:04:00,50.8,45.8,30.23,WNW,297,2.0,6.0,83,0.00,,,0.00,0,Wunderground v.1.15,2013-02-06 19:04:00,
2013-02-06 11:10:00,51.2,46.2,30.23,WSW,256,1.0,1.0,83,0.00,,,0.00,0,Wunderground v.1.15,2013-02-06 19:10:00,
2013-02-06 11:15:00,51.7,46.7,30.22,West,280,2.0,4.0,83,0.00,,,0.00,0,Wunderground v.1.15,2013-02-06 19:15:00,
2013-02-06 11:21:00,52.2,47.5,30.23,SSW,193,5.0,5.0,84,0.00,,,0.00,0,Wunderground v.1.15,2013-02-06 19:21:00,
2013-02-06 11:26:00,52.6,47.6,30.22,West,278,3.0,5.0,83,0.00,,,0.00,0,Wunderground v.1.15,2013-02-06 19:26:00,
2013-02-06 11:32:00,52.7,47.7,30.22,WNW,299,6.0,6.0,83,0.00,,,0.00,0,Wunderground v.1.15,2013-02-06 19:32:00,
2013-02-06 11:37:00,52.6,47.9,30.22,West,269,3.0,6.0,84,0.00,,,0.00,0,Wunderground v.1.15,2013-02-06 19:37:00,
2013-02-06 11:43:00,53.2,48.5,30.22,NW,320,2.0,5.0,84,0.00,,,0.00,0,Wunderground v.1.15,2013-02-06 19:43:00,
2013-02-06 11:48:00,53.2,48.2,30.22,NNW,331,4.0,5.0,83,0.00,,,0.00,0,Wunderground v.1.15,2013-02-06 19:48:00,
2013-02-06 11:54:00,53.0,47.3,30.22,WNW,289,3.0,7.0,81,0.00,,,0.00,0,Wunderground v.1.15,2013-02-06 19:54:00,
2013-02-06 11:59:00,53.1,47.7,30.22,NW,322,5.0,7.0,82,0.00,,,0.00,0,Wunderground v.1.15,2013-02-06 19:59:00,
2013-02-06 12:08:00,53.5,48.8,30.21,West,275,1.0,7.0,84,0.00,,,0.00,0,Wunderground v.1.15,2013-02-06 20:08:00,
2013-02-06 12:13:00,53.9,48.5,30.21,NW,309,4.0,5.0,82,0.00,,,0.00,0,Wunderground v.1.15,2013-02-06 20:13:00,
2013-02-06 12:18:00,54.2,49.5,30.21,NW,322,3.0,6.0,84,0.00,,,0.00,0,Wunderground v.1.15,2013-02-06 20:18:00,
2013-02-06 12:24:00,54.6,49.5,30.21,WSW,245,0.0,4.0,83,0.00,,,0.00,0,Wunderground v.1.15,2013-02-06 20:24:00,
2013-02-06 12:30:00,54.8,49.7,30.20,NW,310,2.0,2.0,83,0.00,,,0.00,0,Wunderground v.1.15,2013-02-06 20:30:00,
2013-02-06 12:35:00,54.9,49.2,30.20,NW,319,7.0,7.0,81,0.00,,,0.00,0,Wunderground v.1.15,2013-02-06 20:35:00,
2013-02-06 12:41:00,54.6,48.6,30.20,NW,319,1.0,5.0,80,0.00,,,0.00,0,Wunderground v.1.15,2013-02-06 20:41:00,
2013-02-06 12:47:00,54.7,49.0,30.20,NW,311,0.0,7.0,81,0.00,,,0.00,0,Wunderground v.1.15,2013-02-06 20:47:00,
2013-02-06 12:53:00,54.9,48.8,30.20,WNW,296,0.0,7.0,80,0.00,,,0.00,0,Wunderground v.1.15,2013-02-06 20:53:00,
2013-02-06 12:59:00,54.9,49.5,30.19,WNW,288,5.0,7.0,82,0.00,,,0.00,0,Wunderground v.1.15,2013-02-06 20:59:00,
2013-02-06 13:04:00,55.2,49.8,30.19,NW,310,1.0,8.0,82,0.00,,,0.00,0,Wunderground v.1.15,2013-02-06 21:04:00,
2013-02-06 13:09:00,55.3,48.9,30.19,NW,310,4.0,8.0,79,0.00,,,0.00,0,Wunderground v.1.15,2013-02-06 21:09:00,
2013-02-06 13:15:00,55.2,48.8,30.18,NW,323,1.0,6.0,79,0.00,,,0.00,0,Wunderground v.1.15,2013-02-06 21:15:00,
2013-02-06 13:20:00,55.3,48.6,30.18,NW,305,5.0,5.0,78,0.00,,,0.00,0,Wunderground v.1.15,2013-02-06 21:20:00,
2013-02-06 13:26:00,55.4,48.7,30.18,WNW,282,0.0,5.0,78,0.00,,,0.00,0,Wunderground v.1.15,2013-02-06 21:26:00,
2013-02-06 13:32:00,55.5,48.8,30.17,NW,324,0.0,1.0,78,0.00,,,0.00,0,Wunderground v.1.15,2013-02-06 21:32:00,
2013-02-06 13:37:00,55.6,48.5,30.17,WSW,252,2.0,5.0,77,0.00,,,0.00,0,Wunderground v.1.15,2013-02-06 21:37:00,
2013-02-06 13:42:00,55.9,49.1,30.17,SW,226,0.0,1.0,78,0.00,,,0.00,0,Wunderground v.1.15,2013-02-06 21:42:00,
2013-02-06 13:48:00,56.1,49.3,30.16,WNW,301,3.0,5.0,78,0.00,,,0.00,0,Wunderground v.1.15,2013-02-06 21:48:00,
2013-02-06 13:54:00,56.3,49.2,30.16,WNW,298,3.0,5.0,77,0.00,,,0.00,0,Wunderground v.1.15,2013-02-06 21:54:00,
2013-02-06 13:59:00,56.6,49.5,30.16,SSW,211,2.0,5.0,77,0.00,,,0.00,0,Wunderground v.1.15,2013-02-06 21:59:00,
2013-02-06 14:04:00,56.9,49.4,30.16,WNW,285,2.0,8.0,76,0.00,,,0.00,0,Wunderground v.1.15,2013-02-06 22:04:00,
2013-02-06 14:10:00,57.1,49.2,30.16,WNW,287,2.0,2.0,75,0.00,,,0.00,0,Wunderground v.1.15,2013-02-06 22:10:00,
2013-02-06 14:16:00,57.4,49.2,30.16,NNW,341,0.0,4.0,74,0.00,,,0.00,0,Wunderground v.1.15,2013-02-06 22:16:00,
2013-02-06 14:22:00,57.5,49.6,30.16,WNW,284,0.0,5.0,75,0.00,,,0.00,0,Wunderground v.1.15,2013-02-06 22:22:00,
2013-02-06 14:27:00,57.7,48.7,30.16,WNW,282,4.0,5.0,72,0.00,,,0.00,0,Wunderground v.1.15,2013-02-06 22:27:00,
2013-02-06 14:32:00,57.9,48.9,30.16,SW,217,2.0,5.0,72,0.00,,,0.00,0,Wunderground v.1.15,2013-02-06 22:32:00,
2013-02-06 14:38:00,58.0,49.4,30.16,NW,311,6.0,6.0,73,0.00,,,0.00,0,Wunderground v.1.15,2013-02-06 22:38:00,
2013-02-06 14:44:00,57.9,49.3,30.16,NW,308,3.0,5.0,73,0.00,,,0.00,0,Wunderground v.1.15,2013-02-06 22:44:00,
2013-02-06 14:50:00,57.7,49.5,30.16,West,279,3.0,3.0,74,0.00,,,0.00,0,Wunderground v.1.15,2013-02-06 22:50:00,
2013-02-06 14:56:00,58.1,50.2,30.16,WSW,239,4.0,4.0,75,0.00,,,0.00,0,Wunderground v.1.15,2013-02-06 22:56:00,
2013-02-06 15:01:00,58.2,48.8,30.16,WSW,253,0.0,6.0,71,0.00,,,0.00,0,Wunderground v.1.15,2013-02-06 23:01:00,
2013-02-06 15:08:00,58.3,48.9,30.15,SE,134,2.0,6.0,71,0.00,,,0.00,0,Wunderground v.1.15,2013-02-06 23:08:00,
2013-02-06 15:14:00,58.0,47.9,30.15,South,178,0.0,2.0,69,0.00,,,0.00,0,Wunderground v.1.15,2013-02-06 23:14:00,
2013-02-06 15:19:00,58.0,48.3,30.15,SSW,207,1.0,1.0,70,0.00,,,0.00,0,Wunderground v.1.15,2013-02-06 23:19:00,
2013-02-06 15:25:00,58.1,46.8,30.15,ESE,122,0.0,1.0,66,0.00,,,0.00,0,Wunderground v.1.15,2013-02-06 23:25:00,
2013-02-06 15:31:00,58.1,47.6,30.15,SSE,163,1.0,1.0,68,0.00,,,0.00,0,Wunderground v.1.15,2013-02-06 23:31:00,
2013-02-06 15:36:00,58.2,47.7,30.15,North,0,1.0,1.0,68,0.00,,,0.00,0,Wunderground v.1.15,2013-02-06 23:36:00,
2013-02-06 15:41:00,58.1,48.0,30.15,SW,229,0.0,0.0,69,0.00,,,0.00,0,Wunderground v.1.15,2013-02-06 23:41:00,
2013-02-06 15:47:00,58.1,48.4,30.15,SW,222,1.0,2.0,70,0.00,,,0.00,0,Wunderground v.1.15,2013-02-06 23:47:00,
2013-02-06 16:04:00,58.1,48.4,30.15,SE,141,0.0,6.0,70,0.00,,,0.00,0,Wunderground v.1.15,2013-02-07 00:04:00,
2013-02-06 16:09:00,58.1,48.7,30.15,West,262,0.0,6.0,71,0.00,,,0.00,0,Wunderground v.1.15,2013-02-07 00:09:00,
2013-02-06 16:14:00,58.2,48.8,30.15,SSW,200,0.0,1.0,71,0.00,,,0.00,0,Wunderground v.1.15,2013-02-07 00:14:00,
2013-02-06 16:20:00,58.0,47.9,30.15,SSW,208,1.0,1.0,69,0.00,,,0.00,0,Wunderground v.1.15,2013-02-07 00:20:00,
2013-02-06 16:26:00,57.7,47.6,30.16,SSE,161,1.0,1.0,69,0.00,,,0.00,0,Wunderground v.1.15,2013-02-07 00:26:00,
2013-02-06 16:32:00,57.5,48.2,30.16,SSW,198,0.0,0.0,71,0.00,,,0.00,0,Wunderground v.1.15,2013-02-07 00:32:00,
2013-02-06 16:37:00,57.4,47.7,30.16,South,173,0.0,1.0,70,0.00,,,0.00,0,Wunderground v.1.15,2013-02-07 00:37:00,
2013-02-06 16:43:00,57.3,47.2,30.16,South,173,0.0,1.0,69,0.00,,,0.00,0,Wunderground v.1.15,2013-02-07 00:43:00,
2013-02-06 16:49:00,57.1,45.8,30.16,SSE,165,0.0,1.0,66,0.00,,,0.00,0,Wunderground v.1.15,2013-02-07 00:49:00,
2013-02-06 16:54:00,57.0,45.7,30.15,SW,219,0.0,1.0,66,0.00,,,0.00,0,Wunderground v.1.15,2013-02-07 00:54:00,
2013-02-06 17:00:00,56.9,46.4,30.15,SW,219,0.0,0.0,68,0.00,,,0.00,0,Wunderground v.1.15,2013-02-07 01:00:00,
2013-02-06 17:08:00,56.7,45.9,30.15,SW,220,0.0,4.0,67,0.00,,,0.00,0,Wunderground v.1.15,2013-02-07 01:08:00,
2013-02-06 17:13:00,56.5,45.7,30.15,SW,220,0.0,0.0,67,0.00,,,0.00,0,Wunderground v.1.15,2013-02-07 01:13:00,
2013-02-06 17:19:00,56.4,45.6,30.15,SW,220,0.0,0.0,67,0.00,,,0.00,0,Wunderground v.1.15,2013-02-07 01:19:00,
2013-02-06 17:24:00,56.1,45.7,30.15,SW,220,0.0,0.0,68,0.00,,,0.00,0,Wunderground v.1.15,2013-02-07 01:24:00,
2013-02-06 17:30:00,55.9,45.1,30.15,SW,220,0.0,0.0,67,0.00,,,0.00,0,Wunderground v.1.15,2013-02-07 01:30:00,
2013-02-06 17:36:00,55.6,44.8,30.15,SW,220,0.0,0.0,67,0.00,,,0.00,0,Wunderground v.1.15,2013-02-07 01:36:00,
2013-02-06 17:42:00,55.3,44.9,30.15,SW,220,0.0,0.0,68,0.00,,,0.00,0,Wunderground v.1.15,2013-02-07 01:42:00,
2013-02-06 17:48:00,54.9,44.9,30.15,SW,219,0.0,0.0,69,0.00,,,0.00,0,Wunderground v.1.15,2013-02-07 01:48:00,
2013-02-06 17:53:00,54.6,44.6,30.15,SW,220,0.0,0.0,69,0.00,,,0.00,0,Wunderground v.1.15,2013-02-07 01:53:00,
2013-02-06 17:58:00,54.3,44.7,30.15,SW,220,0.0,0.0,70,0.00,,,0.00,0,Wunderground v.1.15,2013-02-07 01:58:00,
2013-02-06 18:04:00,54.0,44.8,30.15,SW,220,0.0,3.0,71,0.00,,,0.00,0,Wunderground v.1.15,2013-02-07 02:04:00,
2013-02-06 18:09:00,53.8,45.3,30.15,SW,220,0.0,3.0,73,0.00,,,0.00,0,Wunderground v.1.15,2013-02-07 02:09:00,
2013-02-06 18:15:00,53.1,45.0,30.15,SW,220,0.0,0.0,74,0.00,,,0.00,0,Wunderground v.1.15,2013-02-07 02:15:00,
2013-02-06 18:21:00,51.9,44.6,30.15,ESE,116,0.0,1.0,76,0.00,,,0.00,0,Wunderground v.1.15,2013-02-07 02:21:00,
2013-02-06 18:27:00,51.5,44.5,30.15,ESE,116,0.0,1.0,77,0.00,,,0.00,0,Wunderground v.1.15,2013-02-07 02:27:00,
2013-02-06 18:32:00,51.4,44.4,30.15,ESE,116,0.0,0.0,77,0.00,,,0.00,0,Wunderground v.1.15,2013-02-07 02:32:00,
2013-02-06 18:38:00,50.9,44.6,30.15,ESE,109,2.0,2.0,79,0.00,,,0.00,0,Wunderground v.1.15,2013-02-07 02:38:00,
2013-02-06 18:43:00,50.5,43.9,30.15,ESE,123,2.0,2.0,78,0.00,,,0.00,0,Wunderground v.1.15,2013-02-07 02:43:00,
2013-02-06 18:49:00,50.5,43.6,30.15,SE,134,1.0,4.0,77,0.00,,,0.00,0,Wunderground v.1.15,2013-02-07 02:49:00,
2013-02-06 18:55:00,50.6,43.7,30.15,ESE,120,2.0,5.0,77,0.00,,,0.00,0,Wunderground v.1.15,2013-02-07 02:55:00,
2013-02-06 19:00:00,50.5,43.6,30.15,ESE,121,4.0,4.0,77,0.00,,,0.00,0,Wunderground v.1.15,2013-02-07 03:00:00,
2013-02-06 19:07:00,50.4,43.8,30.15,SE,127,2.0,4.0,78,0.00,,,0.00,0,Wunderground v.1.15,2013-02-07 03:07:00,
2013-02-06 19:13:00,50.3,43.7,30.15,ESE,113,4.0,5.0,78,0.00,,,0.00,0,Wunderground v.1.15,2013-02-07 03:13:00,
2013-02-06 19:18:00,50.2,43.6,30.15,ESE,115,3.0,5.0,78,0.00,,,0.00,0,Wunderground v.1.15,2013-02-07 03:18:00,
2013-02-06 19:24:00,50.1,43.5,30.15,SE,136,2.0,5.0,78,0.00,,,0.00,0,Wunderground v.1.15,2013-02-07 03:24:00,
2013-02-06 19:30:00,50.0,43.7,30.15,SE,124,3.0,3.0,79,0.00,,,0.00,0,Wunderground v.1.15,2013-02-07 03:30:00,
2013-02-06 19:35:00,49.9,43.6,30.15,SE,126,1.0,4.0,79,0.00,,,0.00,0,Wunderground v.1.15,2013-02-07 03:35:00,
2013-02-06 19:41:00,49.8,43.9,30.16,ESE,121,1.0,1.0,80,0.00,,,0.00,0,Wunderground v.1.15,2013-02-07 03:41:00,
2013-02-06 19:47:00,49.6,43.7,30.16,SE,132,0.0,3.0,80,0.00,,,0.00,0,Wunderground v.1.15,2013-02-07 03:47:00,
2013-02-06 19:54:00,49.4,43.8,30.16,ESE,113,2.0,2.0,81,0.00,,,0.00,0,Wunderground v.1.15,2013-02-07 03:54:00,
2013-02-06 20:00:00,49.3,43.7,30.16,ESE,115,2.0,2.0,81,0.00,,,0.00,0,Wunderground v.1.15,2013-02-07 04:00:00,
2013-02-06 20:07:00,49.1,43.5,30.17,ESE,113,2.0,6.0,81,0.00,,,0.00,0,Wunderground v.1.15,2013-02-07 04:07:00,
2013-02-06 20:13:00,49.1,43.5,30.16,ESE,120,4.0,6.0,81,0.00,,,0.00,0,Wunderground v.1.15,2013-02-07 04:13:00,
2013-02-06 20:18:00,49.0,43.7,30.16,SE,131,2.0,6.0,82,0.00,,,0.00,0,Wunderground v.1.15,2013-02-07 04:18:00,
2013-02-06 20:24:00,48.9,43.6,30.16,SE,134,1.0,5.0,82,0.00,,,0.00,0,Wunderground v.1.15,2013-02-07 04:24:00,
2013-02-06 20:30:00,48.7,43.5,30.17,ESE,105,8.0,8.0,82,0.00,,,0.00,0,Wunderground v.1.15,2013-02-07 04:30:00,
2013-02-06 20:35:00,48.6,43.7,30.17,ESE,119,1.0,8.0,83,0.00,,,0.00,0,Wunderground v.1.15,2013-02-07 04:35:00,
2013-02-06 20:40:00,48.3,43.4,30.17,SE,137,1.0,1.0,83,0.00,,,0.00,0,Wunderground v.1.15,2013-02-07 04:40:00,
2013-02-06 20:46:00,48.1,43.5,30.17,SE,128,1.0,1.0,84,0.00,,,0.00,0,Wunderground v.1.15,2013-02-07 04:46:00,
2013-02-06 20:52:00,47.9,43.6,30.18,SE,128,1.0,2.0,85,0.00,,,0.00,0,Wunderground v.1.15,2013-02-07 04:52:00,
2013-02-06 20:57:00,47.7,43.4,30.18,SE,127,2.0,2.0,85,0.00,,,0.00,0,Wunderground v.1.15,2013-02-07 04:57:00,
2013-02-06 21:00:00,47.6,43.6,30.18,SE,131,0.0,0.0,86,0.00,,,0.00,0,Wunderground v.1.15,2013-02-07 05:00:00,
2013-02-06 21:01:00,47.6,43.6,30.18,SE,128,1.0,1.0,86,0.00,,,0.00,0,Wunderground v.1.15,2013-02-07 05:01:00,
2013-02-06 21:03:00,47.6,43.6,30.18,SE,146,4.0,4.0,86,0.00,,,0.00,0,Wunderground v.1.15,2013-02-07 05:03:00,
2013-02-06 21:09:00,47.7,43.7,30.18,SE,130,0.0,7.0,86,0.00,,,0.00,0,Wunderground v.1.15,2013-02-07 05:09:00,
2013-02-06 21:15:00,47.6,43.6,30.19,SE,125,0.0,2.0,86,0.00,,,0.00,0,Wunderground v.1.15,2013-02-07 05:15:00,
2013-02-06 21:20:00,47.6,43.9,30.19,ESE,123,1.0,1.0,87,0.00,,,0.00,0,Wunderground v.1.15,2013-02-07 05:20:00,
2013-02-06 21:26:00,47.6,44.2,30.19,SE,133,4.0,4.0,88,0.00,,,0.00,0,Wunderground v.1.15,2013-02-07 05:26:00,
2013-02-06 21:31:00,47.5,44.1,30.19,ESE,117,1.0,2.0,88,0.00,,,0.00,0,Wunderground v.1.15,2013-02-07 05:31:00,
2013-02-06 21:36:00,47.5,44.4,30.18,ESE,119,4.0,5.0,89,0.00,,,0.00,0,Wunderground v.1.15,2013-02-07 05:36:00,
2013-02-06 21:42:00,47.5,44.7,30.18,ESE,113,3.0,6.0,90,0.00,,,0.00,0,Wunderground v.1.15,2013-02-07 05:42:00,
2013-02-06 21:47:00,47.4,44.6,30.18,ESE,116,5.0,6.0,90,0.00,,,0.00,0,Wunderground v.1.15,2013-02-07 05:47:00,
2013-02-06 21:52:00,47.3,44.8,30.19,ESE,117,3.0,6.0,91,0.00,,,0.00,0,Wunderground v.1.15,2013-02-07 05:52:00,
2013-02-06 21:58:00,47.2,45.0,30.19,ESE,115,6.0,6.0,92,0.00,,,0.00,0,Wunderground v.1.15,2013-02-07 05:58:00,
2013-02-06 22:03:00,47.2,45.0,30.19,ESE,115,6.0,8.0,92,0.00,,,0.00,0,Wunderground v.1.15,2013-02-07 06:03:00,
2013-02-06 22:09:00,47.1,45.2,30.19,ESE,111,3.0,8.0,93,0.00,,,0.00,0,Wunderground v.1.15,2013-02-07 06:09:00,
2013-02-06 22:15:00,47.0,44.8,30.19,East,99,1.0,3.0,92,0.00,,,0.00,0,Wunderground v.1.15,2013-02-07 06:15:00,
2013-02-06 22:21:00,46.9,44.7,30.20,ESE,111,1.0,1.0,92,0.00,,,0.00,0,Wunderground v.1.15,2013-02-07 06:21:00,
2013-02-06 22:26:00,46.9,44.7,30.20,ESE,109,5.0,5.0,92,0.00,,,0.00,0,Wunderground v.1.15,2013-02-07 06:26:00,
2013-02-06 22:31:00,46.8,44.6,30.20,East,99,2.0,2.0,92,0.00,,,0.00,0,Wunderground v.1.15,2013-02-07 06:31:00,
2013-02-06 22:36:00,46.7,44.8,30.20,ESE,118,4.0,5.0,93,0.00,,,0.00,0,Wunderground v.1.15,2013-02-07 06:36:00,
2013-02-06 22:43:00,46.6,44.7,30.20,ESE,119,4.0,6.0,93,0.00,,,0.00,0,Wunderground v.1.15,2013-02-07 06:43:00,
2013-02-06 22:48:00,46.6,44.4,30.20,ESE,114,3.0,6.0,92,0.00,,,0.00,0,Wunderground v.1.15,2013-02-07 06:48:00,
2013-02-06 22:54:00,46.5,44.3,30.20,SE,126,3.0,8.0,92,0.00,,,0.00,0,Wunderground v.1.15,2013-02-07 06:54:00,
2013-02-06 23:00:00,46.4,44.2,30.20,ESE,114,2.0,2.0,92,0.00,,,0.00,0,Wunderground v.1.15,2013-02-07 07:00:00,
2013-02-06 23:07:00,46.3,44.4,30.20,ESE,119,3.0,11.0,93,0.00,,,0.00,0,Wunderground v.1.15,2013-02-07 07:07:00,
2013-02-06 23:13:00,46.3,44.7,30.20,ESE,116,3.0,5.0,94,0.00,,,0.00,0,Wunderground v.1.15,2013-02-07 07:13:00,
2013-02-06 23:19:00,46.2,44.6,30.20,ESE,112,4.0,7.0,94,0.00,,,0.00,0,Wunderground v.1.15,2013-02-07 07:19:00,
2013-02-06 23:25:00,46.0,44.4,30.20,SE,135,4.0,6.0,94,0.00,,,0.00,0,Wunderground v.1.15,2013-02-07 07:25:00,
2013-02-06 23:31:00,45.8,44.4,30.20,SE,130,2.0,6.0,95,0.00,,,0.00,0,Wunderground v.1.15,2013-02-07 07:31:00,
2013-02-06 23:36:00,45.6,44.5,30.20,SE,128,5.0,6.0,96,0.00,,,0.00,0,Wunderground v.1.15,2013-02-07 07:36:00,
2013-02-06 23:42:00,45.5,44.4,30.21,SE,128,2.0,5.0,96,0.00,,,0.00,0,Wunderground v.1.15,2013-02-07 07:42:00,
2013-02-06 23:48:00,45.3,44.2,30.21,ESE,118,3.0,5.0,96,0.00,,,0.00,0,Wunderground v.1.15,2013-02-07 07:48:00,
2013-02-06 23:54:00,45.2,44.7,30.21,ESE,118,2.0,5.0,98,0.00,,,0.00,0,Wunderground v.1.15,2013-02-07 07:54:00,
2013-02-06 23:59:00,45.2,44.7,30.21,ESE,117,4.0,4.0,98,0.00,,,0.00,0,Wunderground v.1.15,2013-02-07 07:59:00,